Voltar ao catálogo

USA 32

AtivoMilitarPO
NORAD 19460·PAYLOAD·🇺🇸 United States

Lançado Sep 5, 1988 de Vandenberg Space Force Base

Loading…

Próximas Passagens (próximas 24 horas)

TLE

AtualizadoSource: Space-Track

Época: Sep 13, 2026, 12:59 UTC

1 19460U 88078A   26256.54164724  .00000120  00000-0  35575-4 0  9997
2 19460  84.9825  61.6703 0003455 152.1831 207.9548 14.34462704121856

Acompanhe USA 32 em tempo real com AllMySat

Download on the App Store